Regional Weather Roundup
Issued by NWS

Home | Current Version | Previous Version | Graphics & Text | Print | Product List | Glossary Off
Versions: 1 2 3 4 5 6 7 8 9 10 11 12 13 14 15 16 17 18 19 20 21 22 23 24 25 26 27 28 29 30 31 32 33 34 35 36 37 38 39 40 41 42 43 44 45 46 47 48 49 50

000
ASUS43 KMPX 012201
RWRMN
WEATHER ROUNDUP FOR MINNESOTA
NATIONAL WEATHER SERVICE TWIN CITIES/CHANHASSEN MN
500 PM CDT WED JUL 01 2015


NOTE: "FAIR" INDICATES FEW OR NO CLOUDS BELOW 12,000 FEET WITH NO
SIGNIFICANT WEATHER AND/OR OBSTRUCTIONS TO VISIBILITY. N/A MEANS
CURRENT SKY AND/OR WEATHER CONDITIONS ARE NOT AVAILABLE.

MNZ060>063-068>070-012300-
   Twin Cities Metro

CITY           SKY/WX    TMP DP  RH WIND       PRES   REMARKS
TWIN CITIES    MOSUNNY   71  52  50 SE5       29.99F
ST PAUL        SUNNY     72  53  51 CALM      29.99F
CRYSTAL        SUNNY     75  51  43 E6        29.98F
BLAINE         MOSUNNY   75  54  46 E6        29.99F
LAKEVILLE      MOSUNNY   66  52  59 SE3       30.00F
EDEN PRAIRIE   MOSUNNY   70  49  47 SE3       29.99F
SOUTH ST PAUL  SUNNY     71  53  52 S5        29.99F
LAKE ELMO      FAIR      73  54  49 SE3       30.00F
$$
MNZ001>005-007-008-013>017-022>024-027-028-012300-
   Northwest Minnesota

CITY           SKY/WX    TMP DP  RH WIND       PRES   REMARKS
BEMIDJI        PTSUNNY   75  58  56 SW5       29.96S
HALLOCK        SUNNY     79  55  44 SW6       29.93R
ROSEAU         MOSUNNY   77  57  50 SW5       29.95R
WARROAD        MOSUNNY   79  59  50 SW6       29.95S
THIEF RVR FALL MOSUNNY   79  57  47 SW7       29.95S
CROOKSTON      SUNNY     79  61  53 SW12      29.95S
FOSSTON        SUNNY     79  59  50 SW9       29.96F
DETROIT LAKES  MOSUNNY   75  55  50 SW7       29.99F
MOORHEAD       SUNNY     75  61  60 S9        29.97S
PARK RAPIDS    CLOUDY    78  57  48 SW12      29.97F
MAHNOMEN       FAIR      76  60  56 SW8       29.97S
$$
MNZ006-009>011-018-025>026-012300-
   North Central Minnesota

CITY           SKY/WX    TMP DP  RH WIND       PRES   REMARKS
BAUDETTE       SUNNY     79  51  37 CALM      29.94F
FLAG ISLAND    MOSUNNY   73  59  60 S9        29.93S
INTL FALLS     SUNNY     78  49  35 CALM      29.95F
WASKISH        SUNNY     77  55  47 W5        29.95S
BIG FORK       SUNNY    N/A N/A N/A SW7       29.96S
LONGVILLE      MOSUNNY   73  57  56 S6        29.97S
GRAND RAPIDS   MOSUNNY   73  55  53 S7        29.98S
CRANE LAKE     PTSUNNY   73  52  46 NW1       29.98S
ORR            MOSUNNY   75  48  38 CALM      29.94F
COOK           MOSUNNY   75  54  46 CALM      29.97F
WALKER         RAIN      69  63  80 CALM      29.96S
$$
MNZ012-019>021-037-012300-
   Northeast Minnesota

CITY           SKY/WX    TMP DP  RH WIND       PRES   REMARKS
DULUTH         MOSUNNY   71  54  54 S6        29.99F
ELY            PTSUNNY   72  52  49 S3        29.98F
HIBBING        PTSUNNY   75  53  46 CALM      29.97F
EVELETH        SUNNY     72  54  53 S6        29.99F
DULUTH HARBOR  SUNNY     66  61  82 NE7       29.99S
SILVER BAY       N/A    N/A N/A N/A SE5       30.00S
GRAND MARAIS     N/A     56  49  77 SW3       30.01F
G MARAIS ARPRT MOSUNNY   63  43  48 S7        30.04S
$$
MNZ029>031-032-039>041-046>048-054>057-064-012300-
   West Central Minnesota

CITY           SKY/WX    TMP DP  RH WIND       PRES   REMARKS
FERGUS FALLS   SUNNY     73  55  53 S9        29.98S
WHEATON        SUNNY     70  55  60 SE9       29.99F
MORRIS         SUNNY     73  52  46 SE8       29.98S
ALEXANDRIA     SUNNY     72  54  53 SW9       30.01S
ELBOW LAKE     FAIR      72  56  56 S8        29.99S
WADENA           N/A     73  52  46 S7        29.99S
GLENWOOD       SUNNY     73  57  56 S6        30.01S
APPLETON       SUNNY     73  54  49 SE6       29.98S
BENSON         SUNNY     72  52  49 S7        29.99S
ORTONVILLE     MOSUNNY   72  54  53 E9        29.98S
MADISON        SUNNY     72  52  49 SE10      29.98S
WILLMAR        FAIR      73  55  53 SE6       30.01S
$$
MNZ033>034-036-042>043-049>051-058-059-012300-
   Central Minnesota

CITY           SKY/WX    TMP DP  RH WIND       PRES   REMARKS
ST CLOUD       SUNNY     72  49  44 CALM      30.00S
SAUK CENTRE    FAIR      72  54  53 SE7       30.00F
PAYNESVILLE    SUNNY     68  50  51 E3        30.00F
AITKIN         MOSUNNY   75  57  53 S7        29.97F
PINE RIVER       N/A     75  57  53 S9        30.01S
BRAINERD       PTSUNNY   75  53  46 SE7       29.99S
STAPLES        MOSUNNY   73  54  49 S8        29.99S
LONG PRAIRIE   FAIR      72  54  53 SE6       30.00F
LITTLE FALLS   MOSUNNY   73  48  40 S6        30.00R
LITCHFIELD     SUNNY     72  52  49 SE8       30.01S
BUFFALO        SUNNY     71  49  46 CALM      30.01S
MAPLE LAKE     SUNNY     72  54  53 CALM      30.01F
$$
MNZ037-044-045-052-053-012300-
   East Central Minnesota

CITY           SKY/WX    TMP DP  RH WIND       PRES   REMARKS
PRINCETON      SUNNY     75  52  43 CALM      29.99S
MORA           SUNNY     70  52  52 CALM      30.01S
CAMBRIDGE      SUNNY     75  57  53 E5        29.97F
RUSH CITY      SUNNY     73  52  47 CALM      29.99F
MOOSE LAKE     SUNNY     72  59  64 CALM      29.97F
HINCKLEY       FAIR      73  54  49 N3        29.99F
CLOQUET        MOSUNNY   72  54  53 CALM      29.99S
MCGREGOR       SUNNY     73  54  49 S3        29.99F
$$
MNZ071>073-080-081-089-090-097-098-012300-
   Southwest Minnesota

CITY           SKY/WX    TMP DP  RH WIND       PRES   REMARKS
MONTEVIDEO     MOSUNNY   72  55  56 S8        30.00S
GRANITE FALLS  CLOUDY    70  50  49 SE10      30.01S
CANBY          CLOUDY    70  58  64 E10       29.99S
MARSHALL       CLOUDY    72  48  43 E14       29.97S
REDWOOD FALLS  MOSUNNY   71  52  50 SE9       29.99S
OLIVIA         SUNNY     68  50  52 SE8       29.99S
PIPESTONE      PTSUNNY   73  54  49 SE9       29.97S
WINDOM         PTSUNNY   70  57  64 E9        29.99S
WORTHINGTON    CLOUDY    72  48  43 E12G17    29.97S
JACKSON        CLOUDY    68  55  64 E13       29.99S
TRACY          CLOUDY    70  56  62 SE7       29.99S
SLAYTON        CLOUDY    70  53  53 E8        29.99S
$$
MNZ065>067-074>077-082>085-091>093-012300-
   South Central Minnesota

CITY           SKY/WX    TMP DP  RH WIND       PRES   REMARKS
MANKATO        MOSUNNY   66  48  52 E8        30.00S
NEW ULM        MOSUNNY   66  50  55 E8        29.99F
ST JAMES       MOSUNNY   70  59  68 E8        30.00S
FAIRMONT       CLOUDY    64  52  63 E10       29.98F
GLENCOE        SUNNY     71  53  53 E6        30.00S
FARIBAULT      MOSUNNY   68  50  52 E5        30.01S
OWATONNA       PTSUNNY   66  50  55 E6        30.00F
WASECA         PTSUNNY   64  50  59 E7        30.01F
ALBERT LEA     CLOUDY    64  52  63 E8        30.00S
$$
MNZ078>079-086>088-094>096-012300-
   Southeast Minnesota

CITY           SKY/WX    TMP DP  RH WIND       PRES   REMARKS
ROCHESTER      CLOUDY    62  52  69 NE3       30.02F
RED WING       MOSUNNY   72  52  49 S5        29.98F
DODGE CENTER   PTSUNNY   64  50  59 E5        30.01F
WINONA         PTSUNNY   70  52  52 SW3       29.99S
AUSTIN         CLOUDY    63  52  67 NE3       30.00F
PRESTON        CLOUDY    60  52  76 CALM      30.01F
$$
ABBREVIATIONS USED IN REMARKS
   TC - TEMPERATURES IN CELSIUS
  WCI - WIND CHILL INDEX
   HX - HEAT INDEX
  VSB - VISIBILITY
$$



USA.gov is the U.S. government's official web portal to all federal, state and local government web resources and services.